Time,TemperatureF,DewpointF,PressureIn,WindDirection,WindDirectionDegrees,WindSpeedMPH,WindSpeedGustMPH,Humidity,HourlyPrecipIn,Conditions,Clouds,dailyrainin,SoftwareType,DateUTC
2015-04-27 00:02:00,47.2,45.3,29.85,West,281,7.0,7.0,93,0.00,,,0.08,Wunderground v.1.15,2015-04-27 04:02:00,
2015-04-27 00:07:00,47.3,45.4,29.85,NW,317,2.0,7.0,93,0.00,,,0.08,Wunderground v.1.15,2015-04-27 04:07:00,
2015-04-27 00:13:00,47.3,45.4,29.85,West,277,5.0,5.0,93,0.00,,,0.08,Wunderground v.1.15,2015-04-27 04:13:00,
2015-04-27 00:19:00,47.2,45.3,29.84,West,272,3.0,7.0,93,0.00,,,0.08,Wunderground v.1.15,2015-04-27 04:19:00,
2015-04-27 00:25:00,47.2,45.3,29.84,WNW,284,4.0,7.0,93,0.00,,,0.08,Wunderground v.1.15,2015-04-27 04:25:00,
2015-04-27 00:31:00,47.0,45.4,29.84,West,276,4.0,7.0,94,0.00,,,0.08,Wunderground v.1.15,2015-04-27 04:31:00,
2015-04-27 00:36:00,47.0,45.1,29.84,WNW,293,5.0,7.0,93,0.00,,,0.08,Wunderground v.1.15,2015-04-27 04:36:00,
2015-04-27 00:42:00,47.0,45.1,29.84,West,268,4.0,5.0,93,0.00,,,0.08,Wunderground v.1.15,2015-04-27 04:42:00,
2015-04-27 00:47:00,47.0,45.1,29.83,NW,304,6.0,10.0,93,0.00,,,0.08,Wunderground v.1.15,2015-04-27 04:47:00,
2015-04-27 00:53:00,47.0,45.4,29.83,WNW,300,3.0,6.0,94,0.00,,,0.00,Wunderground v.1.15,2015-04-27 04:53:00,
2015-04-27 01:04:00,47.0,45.4,29.83,West,278,5.0,6.0,94,0.00,,,0.00,Wunderground v.1.15,2015-04-27 05:04:00,
2015-04-27 01:10:00,47.0,45.4,29.83,West,279,5.0,7.0,94,0.00,,,0.00,Wunderground v.1.15,2015-04-27 05:10:00,
2015-04-27 01:16:00,47.0,45.4,29.83,WNW,288,6.0,8.0,94,0.00,,,0.00,Wunderground v.1.15,2015-04-27 05:16:00,
2015-04-27 01:22:00,47.0,45.4,29.83,WNW,283,5.0,5.0,94,0.00,,,0.00,Wunderground v.1.15,2015-04-27 05:22:00,
2015-04-27 01:27:00,46.9,45.3,29.83,WSW,255,4.0,5.0,94,0.00,,,0.00,Wunderground v.1.15,2015-04-27 05:27:00,
2015-04-27 01:32:00,46.9,45.3,29.83,WSW,249,5.0,5.0,94,0.00,,,0.00,Wunderground v.1.15,2015-04-27 05:32:00,
2015-04-27 01:38:00,46.8,45.2,29.83,West,269,4.0,10.0,94,0.00,,,0.00,Wunderground v.1.15,2015-04-27 05:38:00,
2015-04-27 01:44:00,46.8,45.2,29.83,West,271,3.0,5.0,94,0.00,,,0.00,Wunderground v.1.15,2015-04-27 05:44:00,
2015-04-27 01:50:00,46.7,45.1,29.83,WSW,238,6.0,7.0,94,0.00,,,0.00,Wunderground v.1.15,2015-04-27 05:50:00,
2015-04-27 01:55:00,46.6,45.0,29.83,NW,308,7.0,7.0,94,0.00,,,0.00,Wunderground v.1.15,2015-04-27 05:55:00,